Flag for Japan Weather past 2 weeks in Sendai, Japan

Now
82 °F

Broken clouds.


Feels Like: 89 °F
Forecast: 72 / 91 °F
Wind: 6 mph from Southeast

Location: Sendai Airport

Current Time: Jul 31, 2014 at 7:03:46 PM

Latest Report: Jul 31, 2014 at 6:00 PM


Visibility: N/A

Pressure: 29.86 "Hg

Humidity: 79%

Dew point: 75 °F

Location of SendaiLocation

Historic Weather in Sendai — Graph

°F

Sendai temperature yesterday

Maximum temperature yesterday: 79 °F (at 2:00 PM)
Minimum temperature yesterday: 68 °F (at 6:00 AM)
Average temperature yesterday: 76 °F

Past Weeks' High & Low Weather Summary

 TemperatureHumidityPressure
High91 °F (Jul 27, 12:00 PM)100% (Jul 17, 8:00 AM)30.01 "Hg (Jul 17, 8:00 AM)
Low66 °F (Jul 20, 6:00 AM)40% (Jul 28, 1:00 PM)29.56 "Hg (Jul 27, 1:00 PM)
Average76 °F81%29.84 "Hg
* Reported Jul 16 6:00 PM — Jul 31 6:00 PM, Sendai, Weather by CustomWeather, © 2014

Note: Actual official high and low records may vary slightly from our data, if they occured in-between our weather recording intervals... More about our weather records

Advertising

Sendai weather history for previous 24 hours

 ConditionsComfort  
Time TempWeatherWind HumidityBarometerVisibility
6:00 PM
Jul 31
82 °FBroken clouds.6 mph79%29.86 "HgN/A
5:00 PM82 °FScattered clouds.9 mph74%29.86 "HgN/A
4:00 PM84 °FPartly sunny.8 mph66%29.86 "HgN/A
3:00 PM82 °FScattered clouds.10 mph74%29.86 "HgN/A
2:00 PM82 °FPartly sunny.13 mph70%29.89 "HgN/A
1:00 PM77 °FPartly sunny.2 mph83%29.89 "HgN/A
12:04 PM73 °FStrong thunderstorms. Fog.22 mph89%29.95 "Hg1 mi
11:00 AM82 °FPassing clouds.9 mph79%29.92 "HgN/A
10:00 AM81 °FPassing clouds.10 mph79%29.92 "HgN/A
9:00 AM81 °FSunny.6 mph79%29.92 "Hg10 mi
8:00 AM81 °FPartly sunny.6 mph79%29.92 "HgN/A
7:00 AM77 °FClear.3 mph83%29.95 "Hg5 mi
6:00 AM73 °FClear.1 mph94%29.92 "Hg4 mi
9:00 PM
Jul 30
75 °FPassing clouds.3 mph89%29.92 "HgN/A
8:00 PM75 °FPassing clouds.3 mph89%29.92 "HgN/A
7:00 PM77 °FPassing clouds.5 mph83%29.92 "HgN/A
Weather by CustomWeather, © 2014

See weather overviewHow to use our weather pages